FW9752 Weather Reports


time (UTC)temp
C
wind
direction
speed
KPH
gust
KPH
rain 1hr
cm
rain 24hr
cm
rain mn
cm
humidity
%
barometer
mb
20260906164554 31 267 6.4 14.5 0.00 0.00 0.00 73 1017.0
20260906163107 30 267 4.8 14.5 0.00 0.00 0.00 74 1017.2
20260906161556 30 267 6.4 14.5 0.00 0.00 0.00 75 1017.1
20260906160056 30 266 4.8 14.5 0.00 0.00 0.00 76 1017.0
20260906154549 30 267 3.2 11.3 0.00 0.00 0.00 76 1017.0
20260906153052 29 266 6.4 11.3 0.00 0.00 0.00 78 1016.9
20260906151546 29 266 4.8 11.3 0.00 0.00 0.00 79 1016.9
20260906150049 28 266 4.8 11.3 0.00 0.00 0.00 80 1016.9
20260906144547 27 266 8.0 19.3 0.00 0.00 0.00 82 1016.7
20260906143051 27 266 6.4 17.7 0.00 0.00 0.00 83 1016.8
20260906141555 27 266 4.8 14.5 0.00 0.00 0.00 85 1016.8
20260906140054 26 266 4.8 16.1 0.00 0.00 0.00 86 1016.7
20260906134545 26 266 6.4 12.9 0.00 0.00 0.00 88 1016.8
20260906133046 25 266 3.2 11.3 0.00 0.00 0.00 90 1016.7
20260906131609 25 266 4.8 12.9 0.00 0.00 0.00 91 1016.6
20260906130047 25 266 4.8 12.9 0.00 0.00 0.00 92 1016.4
20260906124545 -17 0.0 0.0 0.00 0.00 0.00 1016.2
20260906123054 -17 0.0 0.0 0.00 0.00 0.00 1016.1
20260906121551 -17 0.0 0.0 0.00 0.00 0.00 1015.9
20260906120056 -17 0.0 0.0 0.00 0.00 0.00 1015.9
20260906114549 -17 0.0 0.0 0.00 0.00 0.00 1015.7
20260906113043 -17 3.2 8.0 0.00 0.00 0.00 1015.6
20260906111549 24 266 1.6 8.0 0.00 0.00 0.00 89 1015.6
20260906110045 24 266 0.0 6.4 0.00 0.00 0.00 89 1015.5
20260906104554 24 266 1.6 4.8 0.00 0.00 0.00 88 1015.5
20260906103048 24 266 0.0 4.8 0.00 0.00 0.00 88 1015.4
20260906101545 25 266 1.6 3.2 0.00 0.00 0.00 87 1015.4
20260906100041 25 0 0.0 3.2 0.00 0.00 0.00 87 1015.3
20260906094550 24 266 0.0 3.2 0.00 0.00 0.00 87 1015.0
20260906093056 25 0 0.0 1.6 0.00 0.00 0.00 86 1014.9
20260906091547 25 266 0.0 1.6 0.00 0.00 0.00 85 1014.7
20260906090056 25 0 0.0 1.6 0.00 0.00 0.00 84 1014.6
20260906084555 25 266 0.0 4.8 0.00 0.00 0.00 84 1014.6
20260906083047 25 0 0.0 3.2 0.00 0.00 0.00 84 1014.5
20260906081547 25 266 1.6 4.8 0.00 0.00 0.00 84 1014.6
20260906080053 25 0 0.0 1.6 0.00 0.00 0.00 83 1014.4
20260906074558 25 266 0.0 3.2 0.00 0.00 0.00 82 1014.4
20260906073047 25 266 1.6 3.2 0.00 0.00 0.00 82 1014.5
20260906071549 26 266 0.0 3.2 0.00 0.00 0.00 80 1014.6
20260906070050 26 266 0.0 3.2 0.00 0.00 0.00 80 1014.7
20260906064546 26 0 0.0 0.0 0.00 0.00 0.00 80 1014.8
20260906063047 25 0 0.0 1.6 0.00 0.00 0.00 82 1015.0
20260906061546 26 0 0.0 0.0 0.00 0.00 0.00 80 1014.9
20260906054549 26 0 0.0 0.0 0.00 0.00 0.00 78 1014.9
20260906053041 26 0 0.0 3.2 0.00 0.00 0.00 77 1014.9
20260906051554 27 0 0.0 3.2 0.00 0.00 0.00 75 1014.9
20260906050048 28 0 0.0 0.0 0.00 0.00 0.00 72 1014.8
20260906044545 28 0 0.0 1.6 0.00 0.00 0.00 72 1014.7
20260906043048 28 266 0.0 1.6 0.00 0.00 0.00 72 1014.9
20260906041548 28 0 0.0 0.0 0.00 0.00 0.00 72 1014.8
20260906040049 28 266 0.0 0.0 0.00 0.00 0.00 69 1014.7
20260906034552 29 0 0.0 0.0 0.00 0.00 0.00 68 1014.4
20260906033048 30 266 0.0 3.2 0.00 0.00 0.00 65 1014.2
20260906031543 30 0 0.0 3.2 0.00 0.00 0.00 64 1014.2
20260906030056 30 266 1.6 4.8 0.00 0.00 0.00 65 1014.2
20260906024549 30 0 0.0 4.8 0.00 0.00 0.00 66 1014.2
20260906023047 30 266 1.6 4.8 0.00 0.00 0.00 66 1014.1
20260906021558 29 266 0.0 3.2 0.00 0.00 0.00 69 1013.8
20260906020053 30 266 1.6 8.0 0.00 0.00 0.00 68 1013.6
20260906014549 31 266 0.0 1.6 0.00 0.00 0.00 65 1013.4
20260906013045 31 0 0.0 0.0 0.00 0.00 0.00 65 1013.1
20260906011555 31 0 0.0 0.0 0.00 0.00 0.00 64 1012.9
20260906010055 32 0 0.0 0.0 0.00 0.00 0.00 62 1012.8
20260906004547 32 0 0.0 0.0 0.00 0.00 0.00 59 1012.8
20260906003048 33 0 0.0 0.0 0.00 0.00 0.00 57 1012.8
20260906001601 34 0 0.0 1.6 0.00 0.00 0.00 56 1012.9
20260906000053 35 267 0.0 3.2 0.00 0.00 0.00 52 1012.9
20260905234548 35 0 0.0 4.8 0.00 0.00 0.00 51 1012.9
20260905233104 35 267 1.6 6.4 0.00 0.00 0.00 49 1012.9
20260905231553 35 267 3.2 8.0 0.00 0.00 0.00 49 1012.8
20260905230054 36 267 1.6 8.0 0.00 0.00 0.00 49 1012.7
20260905224606 36 0 3.2 6.4 0.00 0.00 0.00 49 1012.8
20260905223048 36 267 4.8 9.7 0.00 0.00 0.00 47 1012.8
20260905221543 36 267 3.2 9.7 0.00 0.00 0.00 48 1012.9
20260905220051 36 267 1.6 9.7 0.00 0.00 0.00 46 1013.1
20260905214548 36 267 4.8 9.7 0.00 0.00 0.00 45 1013.1
20260905213054 36 267 4.8 11.3 0.00 0.00 0.00 45 1013.2
20260905211547 36 267 4.8 11.3 0.00 0.00 0.00 45 1013.3
20260905210042 36 267 3.2 9.7 0.00 0.00 0.00 45 1013.4
20260905204553 36 267 3.2 11.3 0.00 0.00 0.00 46 1013.7
20260905203045 36 267 3.2 9.7 0.00 0.00 0.00 45 1013.9
20260905201549 36 267 6.4 17.7 0.00 0.00 0.00 44 1013.9
20260905200100 36 267 4.8 11.3 0.00 0.00 0.00 45 1014.0
20260905194549 36 267 4.8 11.3 0.00 0.00 0.00 45 1014.2
20260905193045 37 267 1.6 9.7 0.00 0.00 0.00 43 1014.4
20260905191553 36 268 1.6 8.0 0.00 0.00 0.00 46 1014.6
20260905190112 36 268 6.4 14.5 0.00 0.00 0.00 46 1014.8
20260905184606 36 268 3.2 12.9 0.00 0.00 0.00 47 1015.0
20260905183047 35 268 3.2 14.5 0.00 0.00 0.00 48 1015.1
20260905181551 35 268 4.8 14.5 0.00 0.00 0.00 50 1015.2
20260905180056 35 268 4.8 16.1 0.00 0.00 0.00 49 1015.4
20260905174555 35 268 4.8 12.9 0.00 0.00 0.00 49 1015.5
20260905173059 35 268 4.8 12.9 0.00 0.00 0.00 51 1015.7
20260905171553 35 268 3.2 12.9 0.00 0.00 0.00 53 1015.7
20260905170056 34 268 4.8 9.7 0.00 0.00 0.00 54 1015.8